Weather History for KOXV - March, 2013

Change the Weather History Date:

Sunday, March 3, 2013

  Actual Average Record
Temperature  
Mean Temperature 27 °F -  
Max Temperature 35 °F 45 °F 79 °F (1983)
Min Temperature 19 °F 26 °F -7 °F (2014)
Degree Days  
Heating Degree Days 38    
Moisture  
Dew Point 17 °F    
Average Humidity 65    
Maximum Humidity 80    
Minimum Humidity 48    
Precipitation  
Precipitation 0.00 in - - ()
Sea Level Pressure  
Sea Level Pressure 30.03 in    
Wind  
Wind Speed 7 mph (SE)    
Max Wind Speed 15 mph    
Max Gust Speed 22 mph    
Visibility 10 miles    
Events Snow    
Averages and records for this station are not official NWS values.
T = Trace of Precipitation, MM = Missing Value Source: NWS Daily Summary

Daily Weather History Graph

Daily Weather History Graph

Search for Another Location

Airport or City:

Trip Planner

Search our weather history database for the weather conditions in past years. The results will help you decide how hot, cold, wet, or windy it might be!

Date:

Astronomy

Mar. 03, 2013 Rise Set
Actual Time 6:43 AM CST 6:05 PM CST
Civil Twilight 6:15 AM CST 6:33 PM CST
Nautical Twilight 5:43 AM CST 7:05 PM CST
Astronomical Twilight 5:11 AM CST 7:37 PM CST
Moon No Moon Rise 9:54 AM CST (3/3)
Length of Visible Light 12h 17m
Length of Day
11h 22m
Waning Gibbous, 63% of the Moon is Illuminated
Mar 3
Waning Gibbous
Mar 4
Last Quarter
Mar 11
New
Mar 19
First Quarter
Mar 27
Full

Hourly Weather History & Observations

Time (CST) Temp. Windchill Dew Point Humidity Pressure Visibility Wind Dir Wind Speed Gust Speed Precip Events Conditions
12:15 AM 21.2 °F - 12.2 °F 68% 30.18 in 10.0 mi Calm Calm - N/A   Overcast
12:35 AM 21.2 °F 14.9 °F 12.2 °F 68% 30.17 in 10.0 mi SE 4.6 mph - N/A   Overcast
12:55 AM 21.2 °F - 12.2 °F 68% 30.18 in 10.0 mi Calm Calm - N/A   Overcast
1:15 AM 21.2 °F 16.4 °F 14.0 °F 74% 30.17 in 10.0 mi SSE 3.5 mph - N/A   Overcast
1:35 AM 21.2 °F 16.4 °F 14.0 °F 74% 30.16 in 10.0 mi SE 3.5 mph - N/A   Overcast
2:15 AM 21.2 °F - 14.0 °F 74% 30.15 in 10.0 mi Calm Calm - N/A   Overcast
2:35 AM 21.2 °F 16.4 °F 15.8 °F 80% 30.14 in 10.0 mi SSE 3.5 mph - N/A   Overcast
3:15 AM 21.2 °F 16.4 °F 15.8 °F 80% 30.12 in 10.0 mi South 3.5 mph - N/A   Overcast
3:35 AM 21.2 °F 16.4 °F 15.8 °F 80% 30.11 in 10.0 mi SSE 3.5 mph - N/A   Overcast
3:55 AM 21.2 °F 13.6 °F 15.8 °F 80% 30.10 in 10.0 mi South 5.8 mph - N/A   Overcast
4:15 AM 21.2 °F 14.9 °F 15.8 °F 80% 30.10 in 10.0 mi South 4.6 mph - N/A   Overcast
4:35 AM 21.2 °F 14.9 °F 15.8 °F 80% 30.10 in 10.0 mi SSE 4.6 mph - N/A   Overcast
4:55 AM 23.0 °F 18.4 °F 15.8 °F 74% 30.10 in 10.0 mi SE 3.5 mph - N/A   Overcast
5:15 AM 21.2 °F 16.4 °F 15.8 °F 80% 30.11 in 10.0 mi ESE 3.5 mph - N/A   Overcast
5:35 AM 21.2 °F 16.4 °F 15.8 °F 80% 30.10 in 10.0 mi SE 3.5 mph - N/A   Overcast
5:55 AM 21.2 °F 16.4 °F 15.8 °F 80% 30.11 in 10.0 mi ESE 3.5 mph - N/A   Overcast
6:15 AM 21.2 °F 16.4 °F 15.8 °F 80% 30.11 in 10.0 mi East 3.5 mph - N/A   Overcast
6:35 AM 21.2 °F 14.9 °F 14.0 °F 74% 30.11 in 10.0 mi East 4.6 mph - N/A   Scattered Clouds
6:55 AM 19.4 °F 12.8 °F 14.0 °F 80% 30.11 in 10.0 mi ESE 4.6 mph - N/A   Scattered Clouds
7:15 AM 19.4 °F 10.4 °F 14.0 °F 80% 30.11 in 10.0 mi SE 6.9 mph - N/A   Clear
7:35 AM 21.2 °F 13.6 °F 15.8 °F 80% 30.10 in 10.0 mi SE 5.8 mph - N/A   Clear
7:55 AM 21.2 °F 11.7 °F 15.8 °F 80% 30.10 in 10.0 mi SSE 8.1 mph - N/A   Clear
8:15 AM 21.2 °F 12.6 °F 15.8 °F 80% 30.09 in 10.0 mi SE 6.9 mph - N/A   Mostly Cloudy
8:35 AM 23.0 °F 13.1 °F 15.8 °F 74% 30.09 in 10.0 mi SSE 9.2 mph - N/A   Overcast
8:55 AM 24.8 °F 15.3 °F 15.8 °F 69% 30.08 in 10.0 mi SE 9.2 mph - N/A   Scattered Clouds
9:15 AM 24.8 °F 14.0 °F 15.8 °F 69% 30.08 in 10.0 mi SSE 11.5 mph - N/A   Scattered Clouds
9:35 AM 26.6 °F 18.2 °F 15.8 °F 64% 30.08 in 10.0 mi SSE 8.1 mph - N/A   Clear
9:55 AM 28.4 °F 19.1 °F 15.8 °F 59% 30.08 in 10.0 mi SE 10.4 mph - N/A   Clear
10:15 AM 28.4 °F 18.5 °F 15.8 °F 59% 30.08 in 10.0 mi SSE 11.5 mph - N/A   Scattered Clouds
10:35 AM 30.2 °F 19.8 °F 15.8 °F 55% 30.06 in 10.0 mi SSE 13.8 mph - N/A   Scattered Clouds
10:55 AM 30.2 °F 20.2 °F 15.8 °F 55% 30.06 in 10.0 mi SSE 12.7 mph - N/A   Mostly Cloudy
11:15 AM 30.2 °F 21.9 °F 17.6 °F 60% 30.06 in 10.0 mi SSE 9.2 mph - N/A   Mostly Cloudy
11:35 AM 32.0 °F 24.2 °F 15.8 °F 51% 30.06 in 10.0 mi SSE 9.2 mph - N/A   Mostly Cloudy
11:55 AM 32.0 °F 24.8 °F 17.6 °F 55% 30.05 in 10.0 mi SE 8.1 mph - N/A   Overcast
12:15 PM 33.8 °F 27.0 °F 17.6 °F 52% 30.04 in 10.0 mi SE 8.1 mph - N/A   Overcast
12:35 PM 33.8 °F 26.4 °F 15.8 °F 48% 30.03 in 10.0 mi SSE 9.2 mph - N/A   Overcast
12:55 PM 33.8 °F 26.4 °F 17.6 °F 52% 30.02 in 10.0 mi ESE 9.2 mph - N/A   Overcast
1:15 PM 33.8 °F 25.8 °F 15.8 °F 48% 30.00 in 10.0 mi ESE 10.4 mph - N/A   Overcast
1:35 PM 33.8 °F 25.3 °F 15.8 °F 48% 30.00 in 10.0 mi ESE 11.5 mph - N/A   Overcast
1:55 PM 33.8 °F 25.3 °F 17.6 °F 52% 29.99 in 10.0 mi ESE 11.5 mph - N/A   Overcast
2:15 PM 35.6 °F 28.0 °F 17.6 °F 48% 29.98 in 10.0 mi ESE 10.4 mph - N/A   Overcast
2:35 PM 33.8 °F 24.3 °F 17.6 °F 52% 29.97 in 10.0 mi ESE 13.8 mph - N/A   Mostly Cloudy
2:55 PM 33.8 °F 25.3 °F 17.6 °F 52% 29.97 in 10.0 mi ESE 11.5 mph - N/A   Overcast
3:15 PM 33.8 °F 24.8 °F 17.6 °F 52% 29.96 in 10.0 mi ESE 12.7 mph 17.3 mph N/A   Overcast
3:35 PM 33.8 °F 23.9 °F 17.6 °F 52% 29.96 in 10.0 mi ESE 15.0 mph - N/A   Overcast
3:55 PM 33.8 °F 25.3 °F 17.6 °F 52% 29.95 in 10.0 mi ESE 11.5 mph - N/A   Overcast
4:15 PM 33.8 °F 24.8 °F 17.6 °F 52% 29.96 in 10.0 mi ESE 12.7 mph - N/A   Overcast
4:35 PM 32.0 °F 22.1 °F 17.6 °F 55% 29.96 in 10.0 mi ESE 13.8 mph - N/A   Mostly Cloudy
4:55 PM 32.0 °F 22.1 °F 17.6 °F 55% 29.95 in 10.0 mi ESE 13.8 mph 19.6 mph N/A   Scattered Clouds
5:15 PM 32.0 °F 22.1 °F 17.6 °F 55% 29.95 in 10.0 mi ESE 13.8 mph - N/A   Clear
5:35 PM 30.2 °F 19.8 °F 15.8 °F 55% 29.94 in 10.0 mi ESE 13.8 mph - N/A   Clear
5:55 PM 30.2 °F 19.8 °F 17.6 °F 60% 29.93 in 10.0 mi ESE 13.8 mph - N/A   Clear
6:35 PM 30.2 °F 19.8 °F 17.6 °F 60% 29.94 in 10.0 mi ESE 13.8 mph - N/A   Scattered Clouds
6:55 PM 30.2 °F 20.8 °F 17.6 °F 60% 29.94 in 10.0 mi ESE 11.5 mph - N/A   Scattered Clouds
7:15 PM 30.2 °F 19.8 °F 17.6 °F 60% 29.94 in 10.0 mi ESE 13.8 mph - N/A   Mostly Cloudy
7:35 PM 30.2 °F 20.8 °F 17.6 °F 60% 29.94 in 10.0 mi ESE 11.5 mph - N/A   Overcast
7:55 PM 30.2 °F 20.8 °F 19.4 °F 64% 29.94 in 10.0 mi ESE 11.5 mph - N/A   Overcast
8:15 PM 30.2 °F 20.2 °F 19.4 °F 64% 29.94 in 10.0 mi ESE 12.7 mph 19.6 mph N/A   Overcast
8:35 PM 30.2 °F 20.2 °F 17.6 °F 60% 29.94 in 10.0 mi ESE 12.7 mph 19.6 mph N/A   Overcast
8:55 PM 30.2 °F 20.2 °F 17.6 °F 60% 29.93 in 10.0 mi ESE 12.7 mph - N/A   Overcast
9:15 PM 30.2 °F 20.2 °F 17.6 °F 60% 29.94 in 10.0 mi ESE 12.7 mph 18.4 mph N/A   Overcast
9:35 PM 30.2 °F 19.8 °F 17.6 °F 60% 29.94 in 10.0 mi ESE 13.8 mph 19.6 mph N/A   Overcast
9:55 PM 30.2 °F 20.8 °F 17.6 °F 60% 29.95 in 10.0 mi SE 11.5 mph 17.3 mph N/A Snow Light Snow
10:15 PM 30.2 °F 21.9 °F 19.4 °F 64% 29.96 in 10.0 mi SE 9.2 mph - N/A   Overcast
10:35 PM 28.4 °F 18.5 °F 19.4 °F 69% 29.95 in 2.5 mi SE 11.5 mph - N/A Snow Light Snow
10:55 PM 28.4 °F 17.5 °F 21.2 °F 74% 29.94 in 2.0 mi ESE 13.8 mph 19.6 mph N/A Snow Light Snow
11:15 PM 28.4 °F 17.0 °F 21.2 °F 74% 29.93 in 4.0 mi ESE 15.0 mph 20.7 mph N/A Snow Light Snow
11:35 PM 28.4 °F 17.5 °F 21.2 °F 74% 29.92 in 5.0 mi ESE 13.8 mph 20.7 mph N/A Snow Light Snow
11:55 PM 28.4 °F 17.5 °F 23.0 °F 80% 29.91 in 7.0 mi ESE 13.8 mph 21.9 mph N/A Snow Light Snow